Time,TemperatureF,DewpointF,PressureIn,WindDirection,WindDirectionDegrees,WindSpeedMPH,WindSpeedGustMPH,Humidity,HourlyPrecipIn,Conditions,Clouds,dailyrainin,SolarRadiationWatts/m^2,SoftwareType,DateUTC
2013-09-10 00:01:00,69.0,44.0,-100.00,WNW,291,0.0,16.0,40,0.00,,,0.00,0.000000,,2013-09-10 07:01:00,
2013-09-10 00:12:00,69.0,44.0,-100.00,WNW,291,0.0,16.0,40,0.00,,,0.00,0.000000,,2013-09-10 07:12:00,
2013-09-10 00:21:00,69.0,44.0,-100.00,WNW,291,0.0,16.0,40,0.00,,,0.00,0.000000,,2013-09-10 07:21:00,
2013-09-10 00:32:00,69.0,44.0,-100.00,WNW,291,0.0,16.0,40,0.00,,,0.00,0.000000,,2013-09-10 07:32:00,
2013-09-10 00:52:00,68.0,44.0,-100.00,WNW,301,0.0,0.0,42,0.00,,,0.00,1.000000,,2013-09-10 07:52:00,
2013-09-10 01:02:00,68.0,44.0,-100.00,WNW,301,0.0,0.0,42,0.00,,,0.00,1.000000,,2013-09-10 08:02:00,
2013-09-10 01:12:00,68.0,44.0,-100.00,WNW,301,0.0,0.0,42,0.00,,,0.00,1.000000,,2013-09-10 08:12:00,
2013-09-10 01:52:00,67.0,44.0,-100.00,WNW,292,0.0,8.0,43,-99.99,,,0.00,1.000000,,2013-09-10 08:52:00,
2013-09-10 02:02:00,67.0,44.0,-100.00,WNW,292,0.0,8.0,43,-99.99,,,0.00,1.000000,,2013-09-10 09:02:00,
2013-09-10 02:11:00,67.0,44.0,-100.00,WNW,292,0.0,8.0,43,-99.99,,,0.00,1.000000,,2013-09-10 09:11:00,
2013-09-10 02:33:00,60.0,48.0,-100.00,WNW,302,0.0,4.0,65,-99.99,,,0.00,1.000000,,2013-09-10 09:33:00,
2013-09-10 02:54:00,60.0,48.0,-100.00,WNW,302,0.0,4.0,65,-99.99,,,0.00,1.000000,,2013-09-10 09:54:00,
2013-09-10 03:03:00,60.0,48.0,-100.00,WNW,302,0.0,4.0,65,-99.99,,,0.00,1.000000,,2013-09-10 10:03:00,
2013-09-10 03:13:00,60.0,48.0,-100.00,WNW,302,0.0,4.0,65,-99.99,,,0.00,1.000000,,2013-09-10 10:13:00,
2013-09-10 03:23:00,60.0,48.0,-100.00,WNW,302,0.0,4.0,65,-99.99,,,0.00,1.000000,,2013-09-10 10:23:00,
2013-09-10 03:33:00,57.0,51.0,-100.00,West,278,0.0,1.0,79,0.00,,,0.00,0.000000,,2013-09-10 10:33:00,
2013-09-10 03:53:00,57.0,51.0,-100.00,West,278,0.0,1.0,79,0.00,,,0.00,0.000000,,2013-09-10 10:53:00,
2013-09-10 04:03:00,57.0,51.0,-100.00,West,278,0.0,1.0,79,0.00,,,0.00,0.000000,,2013-09-10 11:03:00,
2013-09-10 04:12:00,57.0,51.0,-100.00,West,278,0.0,1.0,79,0.00,,,0.00,0.000000,,2013-09-10 11:12:00,
2013-09-10 04:22:00,57.0,51.0,-100.00,West,278,0.0,1.0,79,0.00,,,0.00,0.000000,,2013-09-10 11:22:00,
2013-09-10 06:52:00,55.0,51.0,-100.00,WNW,285,0.0,0.0,87,-99.99,,,0.00,1.000000,,2013-09-10 13:52:00,
2013-09-10 07:02:00,55.0,51.0,-100.00,WNW,285,0.0,0.0,87,-99.99,,,0.00,1.000000,,2013-09-10 14:02:00,
2013-09-10 07:11:00,55.0,51.0,-100.00,WNW,285,0.0,0.0,87,-99.99,,,0.00,1.000000,,2013-09-10 14:11:00,
2013-09-10 07:21:00,55.0,51.0,-100.00,WNW,285,0.0,0.0,87,-99.99,,,0.00,1.000000,,2013-09-10 14:21:00,
2013-09-10 07:32:00,55.0,51.0,-100.00,WNW,285,0.0,0.0,87,-99.99,,,0.00,1.000000,,2013-09-10 14:32:00,
2013-09-10 07:33:00,57.0,52.0,-100.00,NNW,332,0.0,0.0,84,0.00,,,0.00,15.000000,,2013-09-10 14:33:00,
2013-09-10 07:52:00,57.0,52.0,-100.00,NNW,332,0.0,0.0,84,0.00,,,0.00,15.000000,,2013-09-10 14:52:00,
2013-09-10 08:02:00,57.0,52.0,-100.00,NNW,332,0.0,0.0,84,0.00,,,0.00,15.000000,,2013-09-10 15:02:00,
2013-09-10 08:11:00,57.0,52.0,-100.00,NNW,332,0.0,0.0,84,0.00,,,0.00,15.000000,,2013-09-10 15:11:00,
2013-09-10 08:22:00,57.0,52.0,-100.00,NNW,332,0.0,0.0,84,0.00,,,0.00,15.000000,,2013-09-10 15:22:00,
2013-09-10 08:33:00,59.0,53.0,-100.00,West,277,0.0,0.0,81,0.00,,,0.00,131.000000,,2013-09-10 15:33:00,
2013-09-10 08:54:00,59.0,53.0,-100.00,West,277,0.0,0.0,81,0.00,,,0.00,131.000000,,2013-09-10 15:54:00,
2013-09-10 09:03:00,59.0,53.0,-100.00,West,277,0.0,0.0,81,0.00,,,0.00,131.000000,,2013-09-10 16:03:00,
2013-09-10 09:13:00,59.0,53.0,-100.00,West,277,0.0,0.0,81,0.00,,,0.00,131.000000,,2013-09-10 16:13:00,
2013-09-10 09:23:00,59.0,53.0,-100.00,West,277,0.0,0.0,81,0.00,,,0.00,131.000000,,2013-09-10 16:23:00,
2013-09-10 09:33:00,65.0,54.0,-100.00,South,182,0.0,0.0,67,0.00,,,-99.99,333.000000,,2013-09-10 16:33:00,
2013-09-10 09:53:00,65.0,54.0,-100.00,South,182,0.0,0.0,67,0.00,,,-99.99,333.000000,,2013-09-10 16:53:00,
2013-09-10 10:03:00,65.0,54.0,-100.00,South,182,0.0,0.0,67,0.00,,,-99.99,333.000000,,2013-09-10 17:03:00,
2013-09-10 10:12:00,65.0,54.0,-100.00,South,182,0.0,0.0,67,0.00,,,-99.99,333.000000,,2013-09-10 17:12:00,
2013-09-10 10:23:00,65.0,54.0,-100.00,South,182,0.0,0.0,67,0.00,,,-99.99,333.000000,,2013-09-10 17:23:00,
2013-09-10 10:52:00,69.0,54.0,-100.00,SSW,194,0.0,1.0,59,0.00,,,0.00,505.000000,,2013-09-10 17:52:00,
2013-09-10 11:02:00,69.0,54.0,-100.00,SSW,194,0.0,1.0,59,0.00,,,0.00,505.000000,,2013-09-10 18:02:00,
2013-09-10 11:12:00,69.0,54.0,-100.00,SSW,194,0.0,1.0,59,0.00,,,0.00,505.000000,,2013-09-10 18:12:00,
2013-09-10 11:21:00,69.0,54.0,-100.00,SSW,194,0.0,1.0,59,0.00,,,0.00,505.000000,,2013-09-10 18:21:00,
2013-09-10 11:32:00,69.0,54.0,-100.00,SSW,194,0.0,1.0,59,0.00,,,0.00,505.000000,,2013-09-10 18:32:00,
2013-09-10 11:52:00,72.0,54.0,-100.00,South,186,0.0,2.0,53,0.00,,,-99.99,644.000000,,2013-09-10 18:52:00,
2013-09-10 12:02:00,72.0,54.0,-100.00,South,186,0.0,2.0,53,0.00,,,-99.99,644.000000,,2013-09-10 19:02:00,
2013-09-10 12:11:00,72.0,54.0,-100.00,South,186,0.0,2.0,53,0.00,,,-99.99,644.000000,,2013-09-10 19:11:00,
2013-09-10 12:21:00,72.0,54.0,-100.00,South,186,0.0,2.0,53,0.00,,,-99.99,644.000000,,2013-09-10 19:21:00,
2013-09-10 12:32:00,72.0,54.0,-100.00,South,186,0.0,2.0,53,0.00,,,-99.99,644.000000,,2013-09-10 19:32:00,
2013-09-10 13:33:00,73.0,53.0,-100.00,WSW,256,0.0,5.0,50,-99.99,,,0.00,791.000000,,2013-09-10 20:33:00,
2013-09-10 13:52:00,73.0,53.0,-100.00,WSW,256,0.0,5.0,50,-99.99,,,0.00,791.000000,,2013-09-10 20:52:00,
2013-09-10 14:02:00,73.0,53.0,-100.00,WSW,256,0.0,5.0,50,-99.99,,,0.00,791.000000,,2013-09-10 21:02:00,
2013-09-10 14:11:00,73.0,53.0,-100.00,WSW,256,0.0,5.0,50,-99.99,,,0.00,791.000000,,2013-09-10 21:11:00,
2013-09-10 14:23:00,73.0,53.0,-100.00,WSW,256,0.0,5.0,50,-99.99,,,0.00,791.000000,,2013-09-10 21:23:00,
2013-09-10 14:33:00,70.0,53.0,-100.00,West,276,0.0,15.0,55,0.00,,,-99.99,779.000000,,2013-09-10 21:33:00,
2013-09-10 14:54:00,70.0,53.0,-100.00,West,276,0.0,15.0,55,0.00,,,-99.99,779.000000,,2013-09-10 21:54:00,
2013-09-10 15:04:00,70.0,53.0,-100.00,West,276,0.0,15.0,55,0.00,,,-99.99,779.000000,,2013-09-10 22:04:00,
2013-09-10 15:13:00,70.0,53.0,-100.00,West,276,0.0,15.0,55,0.00,,,-99.99,779.000000,,2013-09-10 22:13:00,
2013-09-10 15:24:00,70.0,53.0,-100.00,West,276,0.0,15.0,55,0.00,,,-99.99,779.000000,,2013-09-10 22:24:00,
2013-09-10 17:11:00,70.0,54.0,-100.00,West,261,0.0,10.0,56,-99.99,,,0.00,587.000000,,2013-09-11 00:11:00,
2013-09-10 17:52:00,63.0,54.0,-100.00,WNW,288,0.0,19.0,73,-99.99,,,0.00,426.000000,,2013-09-11 00:52:00,
2013-09-10 18:02:00,63.0,54.0,-100.00,WNW,288,0.0,19.0,73,-99.99,,,0.00,426.000000,,2013-09-11 01:02:00,
2013-09-10 18:11:00,63.0,54.0,-100.00,WNW,288,0.0,19.0,73,-99.99,,,0.00,426.000000,,2013-09-11 01:11:00,
2013-09-10 18:21:00,63.0,54.0,-100.00,WNW,288,0.0,19.0,73,-99.99,,,0.00,426.000000,,2013-09-11 01:21:00,
2013-09-10 18:32:00,63.0,54.0,-100.00,WNW,288,0.0,19.0,73,-99.99,,,0.00,426.000000,,2013-09-11 01:32:00,
2013-09-10 18:53:00,61.0,55.0,-100.00,WNW,284,0.0,1.0,81,0.00,,,0.00,221.000000,,2013-09-11 01:53:00,
2013-09-10 19:02:00,61.0,55.0,-100.00,WNW,284,0.0,1.0,81,0.00,,,0.00,221.000000,,2013-09-11 02:02:00,
2013-09-10 19:11:00,61.0,55.0,-100.00,WNW,284,0.0,1.0,81,0.00,,,0.00,221.000000,,2013-09-11 02:11:00,
2013-09-10 19:22:00,61.0,55.0,-100.00,WNW,284,0.0,1.0,81,0.00,,,0.00,221.000000,,2013-09-11 02:22:00,
2013-09-10 19:32:00,61.0,55.0,-100.00,WNW,284,0.0,1.0,81,0.00,,,0.00,221.000000,,2013-09-11 02:32:00,
2013-09-10 19:33:00,59.0,55.0,-100.00,West,263,0.0,8.0,87,0.00,,,0.00,25.000000,,2013-09-11 02:33:00,
2013-09-10 19:52:00,59.0,55.0,-100.00,West,263,0.0,8.0,87,0.00,,,0.00,25.000000,,2013-09-11 02:52:00,
2013-09-10 20:02:00,59.0,55.0,-100.00,West,263,0.0,8.0,87,0.00,,,0.00,25.000000,,2013-09-11 03:02:00,
2013-09-10 20:12:00,59.0,55.0,-100.00,West,263,0.0,8.0,87,0.00,,,0.00,25.000000,,2013-09-11 03:12:00,
2013-09-10 20:22:00,59.0,55.0,-100.00,West,263,0.0,8.0,87,0.00,,,0.00,25.000000,,2013-09-11 03:22:00,
2013-09-10 20:33:00,59.0,55.0,-100.00,West,270,0.0,1.0,88,0.00,,,0.00,1.000000,,2013-09-11 03:33:00,
2013-09-10 20:54:00,59.0,55.0,-100.00,West,270,0.0,1.0,88,0.00,,,0.00,1.000000,,2013-09-11 03:54:00,
2013-09-10 21:04:00,59.0,55.0,-100.00,West,270,0.0,1.0,88,0.00,,,0.00,1.000000,,2013-09-11 04:04:00,
2013-09-10 21:14:00,59.0,55.0,-100.00,West,270,0.0,1.0,88,0.00,,,0.00,1.000000,,2013-09-11 04:14:00,
2013-09-10 21:24:00,59.0,55.0,-100.00,West,270,0.0,1.0,88,0.00,,,0.00,1.000000,,2013-09-11 04:24:00,
2013-09-10 21:33:00,59.0,56.0,-100.00,West,275,0.0,10.0,89,0.00,,,0.00,1.000000,,2013-09-11 04:33:00,
2013-09-10 21:54:00,59.0,56.0,-100.00,West,275,0.0,10.0,89,0.00,,,0.00,1.000000,,2013-09-11 04:54:00,
2013-09-10 22:03:00,59.0,56.0,-100.00,West,275,0.0,10.0,89,0.00,,,0.00,1.000000,,2013-09-11 05:03:00,
2013-09-10 22:12:00,59.0,56.0,-100.00,West,275,0.0,10.0,89,0.00,,,0.00,1.000000,,2013-09-11 05:12:00,
2013-09-10 22:22:00,59.0,56.0,-100.00,West,275,0.0,10.0,89,0.00,,,0.00,1.000000,,2013-09-11 05:22:00,
2013-09-10 22:53:00,58.0,55.0,-100.00,West,261,0.0,12.0,90,0.00,,,0.00,1.000000,,2013-09-11 05:53:00,
2013-09-10 23:02:00,58.0,55.0,-100.00,West,261,0.0,12.0,90,0.00,,,0.00,1.000000,,2013-09-11 06:02:00,
2013-09-10 23:12:00,58.0,55.0,-100.00,West,261,0.0,12.0,90,0.00,,,0.00,1.000000,,2013-09-11 06:12:00,
2013-09-10 23:21:00,58.0,55.0,-100.00,West,261,0.0,12.0,90,0.00,,,0.00,1.000000,,2013-09-11 06:21:00,
2013-09-10 23:32:00,58.0,55.0,-100.00,West,261,0.0,12.0,90,0.00,,,0.00,1.000000,,2013-09-11 06:32:00,
2013-09-10 23:52:00,58.0,55.0,-100.00,West,276,1.0,19.0,90,0.00,,,0.00,0.000000,,2013-09-11 06:52:00,